Location: Belfast
(54.5830°N, 5.9330°W)
Time: 01:48:33
(UTC+01:00)

ISS - Pass Details

Date: 30 March 2017
Orbit: 399 x 409 km, 51.6° (Epoch: 30 March)

Event Time Altitude Azimuth Distance (km) Brightness Sun altitude
Rises 21:22:20 0° 228° (SW) 2,308 0.3 -12.6°
Reaches altitude 10° 21:24:35 10° 216° (SW) 1,454 -0.9 -12.9°
Maximum altitude 21:27:23 27° 156° (SSE) 817 -2.7 -13.3°
Enters shadow 21:28:01 25° 135° (SE) 861 -2.7 -13.3°
